ROMMA est une association bénévole à but non lucratif. Votre soutien est indispensable : ADHERER à ROMMA ou FAIRE un DON

Val-d'Arly - (73, Savoie)

Beaufortain (2050 m)   Longitude: 06° 35' 21" E   Latitude: 45° 46' 53" N Station romma n°118
 

Détail journalier du     <<     >>

Température Humidité Vent Dir Rafale Dir. rafale Ensol.
Heure (°C) (%) (km/h) (km/h) (min)
01:00 -0.96842---72---0
02:00 -1.37335---76---0
03:00 -4.39313---58---0
04:00 -4.49316---32---0
05:00 -4.39319---42---0
06:00 -4.49320---40---0
07:00 -5.19325---50---0
08:00 -5.29314---31---10
09:00 -5.59314---19---60
10:00 -5.49313---18---40
11:00 -5.19214---23---20
12:00 -2.46618---29---60
13:00 -2.57617---26---60
14:00 -2.9888---18---60
15:00 -2.7746---13---60
16:00 -3.3906---15---60
17:00 -3.7884---15---20
18:00 -3.3777---19---0
19:00 -3.0655---16---0
20:00 -3.4692---8---0
21:00 -3.7755---19---0
22:00 -3.67517---27---0
23:00 -4.18117---23---0
minuit -4.2796---18---0

Graphique du 15-11-2019

 

Serveur OMMA